This is the latest recevied weather packets stored in our database for station/object OH2MUI. If no packets are shown the sender has not sent any weather packets the latest 10 day(s).
| Time | Temp. | Humidity | Pressure | Rain* | Wind** | Luminosity | Snow |
|---|---|---|---|---|---|---|---|
| 1777206233 | 6.67° C | 48% | 1007.7 hPa | 0 mm | - | - | - |
| 1777205277 | 6.11° C | 48% | 1007.6 hPa | 0 mm | - | - | - |
| 1777204088 | 6.11° C | 45% | 1007.3 hPa | 0 mm | - | - | - |
| 1777202974 | 6.11° C | 47% | 1007.1 hPa | 0 mm | - | - | - |
| 1777201923 | 6.11° C | 47% | 1006.8 hPa | 0 mm | - | - | - |
| 1777200864 | 6.11° C | 48% | 1006.8 hPa | 0 mm | - | - | - |
| 1777199804 | 5.56° C | 49% | 1006.7 hPa | 0 mm | - | - | - |
| 1777198692 | 5.56° C | 49% | 1006.3 hPa | 0 mm | - | - | - |
| 1777197521 | 5.56° C | 54% | - | 0 mm | - | - | - |
| 1777197519 | 5.56° C | 54% | 1006.1 hPa | 0 mm | - | - | - |
| 1777196372 | 5° C | 55% | 1006.1 hPa | 0 mm | - | - | - |
| 1777195332 | 5° C | 55% | 1005.6 hPa | 0 mm | - | - | - |
| 1777194359 | 4.44° C | 58% | 1005.5 hPa | 0 mm | - | - | - |
| 1777193394 | 4.44° C | 59% | 1005.3 hPa | 0 mm | - | - | - |
| 1777192312 | 5° C | 59% | 1005.3 hPa | 0 mm | - | - | - |
| 1777191229 | 4.44° C | 58% | 1005 hPa | 0 mm | - | - | - |
| 1777190209 | 4.44° C | 59% | 1004.9 hPa | 0 mm | - | - | - |
| 1777189191 | 3.89° C | 60% | 1004.8 hPa | 0 mm | - | - | - |
| 1777188144 | 3.33° C | 65% | 1004.5 hPa | 0 mm | - | - | - |
| 1777187064 | 2.78° C | 67% | 1004.4 hPa | 0 mm | - | - | - |
| 1777186009 | 2.22° C | 69% | 1004.5 hPa | 0 mm | - | - | - |
| 1777184928 | 1.67° C | - | - | 0 mm | - | - | - |
| 1777184924 | 1.67° C | 73% | 1004.2 hPa | 0 mm | - | - | - |
| 1777183799 | 1.11° C | 76% | 1004.1 hPa | 0 mm | - | - | - |
| 1777182764 | 0.56° C | 78% | 1003.7 hPa | 0 mm | - | - | - |
* Rain latest hour (hover to see other rain measurements)
** Current wind speed in m/s (hover to see current wind gust speed)